Location: Pedholt
(56.0260°N, 10.2097°E)
Time: 05:31:05
(UTC+00:00)

NOSS 7 (D) - Pass Details

Date: 14 July 2020
Orbit: 307 x 616 km, 63.3° (Epoch: 14 August)

Event Time Altitude Azimuth Distance (km) Brightness Sun altitude
Rises 00:32:58 0° 306° (NW) 2,056 11.0 -11.0°
Reaches altitude 10° 00:34:52 10° 304° (NW) 1,242 9.9 -10.9°
Maximum altitude 00:37:33 70° 220° (SW) 363 6.7 -10.8°
Drops below altitude 10° 00:40:27 10° 136° (SE) 1,334 9.5 -10.7°
Sets 00:42:33 0° 134° (SE) 2,232 10.7 -10.6°
